Regional Weather Roundup
Issued by NWS

Home | Current Version | Previous Version | Graphics & Text | Print | Product List | Glossary On
Versions: 1 2 3 4 5 6 7 8 9 10 11 12 13 14 15 16 17 18 19 20 21 22 23 24 25 26 27 28 29 30 31 32 33 34 35 36 37 38 39 40 41 42 43 44 45 46 47 48 49 50
000
ASUS43 KOAX 240502
RWRNE

WEATHER ROUNDUP FOR NEBRASKA
NATIONAL WEATHER SERVICE OMAHA NE
1200 AM CDT MON APR 24 2017

NOTES: SATELLITE DATA IS BEING USED TO AUGMENT CLOUD COVER ABOVE
       12000 FEET.
       "FAIR" INDICATES FEW OR NO CLOUDS BELOW 12,000 FEET WITH NO
       SIGNIFICANT WEATHER AND/OR OBSTRUCTIONS TO VISIBILITY.

  * THESE STATIONS DO NOT REPORT WEATHER SUCH AS RAIN...SNOW OR FOG.

NEZ001>004-019>022-054>056-240600-
NEBRASKA PANHANDLE

CITY           SKY/WX    TMP DP  RH WIND       PRES   REMARKS
SCOTTSBLUFF    CLOUDY    58  38  47 SE13      29.60F
ALLIANCE       PTCLDY    54  40  59 S15       29.61F
CHADRON        CLOUDY    63  38  39 S26G33    29.52F
KIMBALL        CLOUDY    49  42  78 S6        29.66F
SIDNEY         CLOUDY    51  42  71 SE6       29.66F
$$

NEZ057>060-069>072-079>082-240600-
SOUTHWEST NEBRASKA

CITY           SKY/WX    TMP DP  RH WIND       PRES   REMARKS
NORTH PLATTE   CLOUDY    58  31  35 SE17G24   29.70F
IMPERIAL       CLOUDY    54  38  54 SE15      29.68F
LEXINGTON      CLOUDY    55  34  45 S20G25    29.75F
MCCOOK         CLOUDY    56  33  42 S9        29.72F
OGALLALA       CLOUDY    56  39  52 SE9G18    29.66F
$$

NEZ005>010-023>029-035>040-094-240600-
NORTH CENTRAL NEBRASKA

CITY           SKY/WX    TMP DP  RH WIND       PRES   REMARKS
VALENTINE      CLOUDY    61  34  36 S18G26    29.63F
AINSWORTH      PTCLDY    55  32  42 S16       29.67F
BROKEN BOW     CLOUDY    56  32  40 S15       29.74F
O`NEILL        CLOUDY    57  31  37 S14G22    29.74F
ORD            CLOUDY    56  32  40 S14       29.76F
THEDFORD       CLOUDY    58  32  37 S18G24    29.69F
$$

NEZ041-046>049-061>064-073>077-083>087-240600-
SOUTH CENTRAL NEBRASKA

CITY           SKY/WX    TMP DP  RH WIND       PRES   REMARKS
GRAND ISLAND   CLOUDY    54  36  50 S17G25    29.81F
AURORA         PTCLDY    55  34  45 S20       29.82F
HASTINGS       CLOUDY    55  35  47 S13       29.83F
HOLDREGE       CLOUDY    54  33  44 S17       29.78F
KEARNEY *      CLOUDY    54  30  40 S17G23    29.79F
YORK           CLOUDY    54  32  43 S16       29.85F
$$

NEZ011>018-030>034-042>045-240600-
NORTHEAST NEBRASKA

CITY           SKY/WX    TMP DP  RH WIND       PRES   REMARKS
NORFOLK        PTCLDY    55  32  41 S16G23    29.80F
ALBION         CLOUDY    55  34  44 S12       29.80F
BLAIR          CLOUDY    58  33  38 S15       29.87F
FREMONT        CLOUDY    56  32  40 S9        29.88S
TEKAMAH        CLOUDY    47  37  68 S10       29.87S
WAYNE          CLOUDY    51  34  51 S13       29.81F
$$

NEZ050>053-065>068-078-088>093-240600-
SOUTHEAST NEBRASKA

CITY           SKY/WX    TMP DP  RH WIND       PRES   REMARKS
LINCOLN        CLOUDY    49  33  54 S7        29.90S
OMAHA EPPLEY   CLOUDY    59  33  37 S16       29.88F
BEATRICE       CLOUDY    53  36  53 SE7       29.89F
FALLS CITY     CLOUDY    53  37  54 S9        29.93F
NEBRASKA CITY  PTCLDY    53  30  41 S9        29.92F
PLATTSMOUTH    CLOUDY    58  28  32 S13G18    29.90F
$$

NEZ044-045-051>053-067-240600-
OMAHA AREA

CITY           SKY/WX    TMP DP  RH WIND       PRES   REMARKS
OMAHA EPPLEY   CLOUDY    59  33  37 S16       29.88F
BLAIR          CLOUDY    58  33  38 S15       29.87F
FREMONT        CLOUDY    56  32  40 S9        29.88S
MILLARD        CLOUDY    60  36  40 S12       29.89F
OFFUTT AFB     CLOUDY    54  35  47 SE8       29.89F
PLATTSMOUTH    CLOUDY    58  28  32 S13G18    29.90F
WAHOO          FAIR      48  33  56 SE8       29.88S
$$




USA.gov is the U.S. government's official web portal to all federal, state and local government web resources and services.